Location: Frankfurt am Main
(50.1109°N, 8.6821°E)
Time: 17:29:06
(UTC+01:00)

ISS - Pass Details

Date: 26 January 2020
Orbit: 415 x 422 km, 51.6° (Epoch: 26 February)

Event Time Altitude Azimuth Distance (km) Brightness Sun altitude
Rises 19:58:12 0° 271° (W) 2,378 1.4 -27.1°
Reaches altitude 10° 20:00:19 10° 274° (W) 1,512 0.0 -27.4°
Enters shadow 20:01:43 23° 280° (W) 963 -1.3 -27.6°
